PRIVATE WETTERSTATION BILLIGHEIM-ALLFELD                       ZURCK
Wetterdaten: Sonntag, 07.05.2017
Datum Zeit Temp. A. Temp. A. min Temp. A. max Feuchte A. Luftdruck Regen Wind Richtung Richtung Sonnenschein ET Solar Taupunkt Windchill Windben Empfang
07.05.2017 00:00 11,9 C 11,9 C 11,9 C 89 % 1010,1 hPa 0,0 l/m 4,8 km/h (1 Bft) W 270 0 min 0,025 mm 0 W/m 10,1 C 11,9 C 11,3 km/h (2 Bft) 100 %
07.05.2017 00:10 11,8 C 11,8 C 11,9 C 90 % 1010,1 hPa 0,0 l/m 4,8 km/h (1 Bft) W 270 0 min 0,000 mm 0 W/m 10,2 C 11,8 C 14,5 km/h (3 Bft) 100 %
07.05.2017 00:20 11,8 C 11,8 C 11,8 C 90 % 1010,1 hPa 0,0 l/m 3,2 km/h (1 Bft) W 270 0 min 0,000 mm 0 W/m 10,2 C 11,8 C 11,3 km/h (2 Bft) 100 %
07.05.2017 00:30 11,8 C 11,8 C 11,8 C 90 % 1010,3 hPa 0,0 l/m 6,4 km/h (2 Bft) W-NW 292 0 min 0,000 mm 0 W/m 10,2 C 11,8 C 14,5 km/h (3 Bft) 100 %
07.05.2017 00:40 11,8 C 11,8 C 11,8 C 90 % 1010,2 hPa 0,0 l/m 4,8 km/h (1 Bft) W 270 0 min 0,000 mm 0 W/m 10,2 C 11,8 C 11,3 km/h (2 Bft) 100 %
07.05.2017 00:50 11,7 C 11,7 C 11,8 C 90 % 1010,2 hPa 0,0 l/m 3,2 km/h (1 Bft) W 270 0 min 0,000 mm 0 W/m 10,1 C 11,7 C 9,7 km/h (2 Bft) 100 %
07.05.2017 01:00 11,7 C 11,7 C 11,7 C 90 % 1010,2 hPa 0,0 l/m 1,6 km/h (1 Bft) W 270 0 min 0,000 mm 0 W/m 10,1 C 11,7 C 6,4 km/h (2 Bft) 100 %
07.05.2017 01:10 11,6 C 11,6 C 11,7 C 90 % 1010,2 hPa 0,0 l/m 1,6 km/h (1 Bft) W 270 0 min 0,000 mm 0 W/m 10,0 C 11,6 C 6,4 km/h (2 Bft) 100 %
07.05.2017 01:20 11,6 C 11,6 C 11,6 C 90 % 1010,3 hPa 0,0 l/m 0,0 km/h (0 Bft) W 270 0 min 0,000 mm 0 W/m 10,0 C 11,6 C 6,4 km/h (2 Bft) 100 %
07.05.2017 01:30 11,5 C 11,5 C 11,6 C 90 % 1010,4 hPa 0,0 l/m 0,0 km/h (0 Bft) W 270 0 min 0,000 mm 0 W/m 9,9 C 11,5 C 3,2 km/h (1 Bft) 100 %
07.05.2017 01:40 11,4 C 11,4 C 11,5 C 90 % 1010,3 hPa 0,0 l/m 0,0 km/h (0 Bft) W 270 0 min 0,000 mm 0 W/m 9,8 C 11,4 C 1,6 km/h (1 Bft) 100 %
07.05.2017 01:50 11,4 C 11,4 C 11,4 C 90 % 1010,3 hPa 0,2 l/m 0,0 km/h (0 Bft) N 0 0 min 0,000 mm 0 W/m 9,8 C 11,4 C 0,0 km/h (0 Bft) 100 %
07.05.2017 02:00 11,3 C 11,3 C 11,4 C 90 % 1010,3 hPa 0,0 l/m 0,0 km/h (0 Bft) W 270 0 min 0,000 mm 0 W/m 9,7 C 11,3 C 1,6 km/h (1 Bft) 100 %
07.05.2017 02:10 11,3 C 11,3 C 11,3 C 90 % 1010,4 hPa 0,0 l/m 0,0 km/h (0 Bft) N 0 0 min 0,000 mm 0 W/m 9,7 C 11,3 C 0,0 km/h (0 Bft) 100 %
07.05.2017 02:20 11,3 C 11,3 C 11,3 C 90 % 1010,4 hPa 0,0 l/m 0,0 km/h (0 Bft) N 0 0 min 0,000 mm 0 W/m 9,7 C 11,3 C 0,0 km/h (0 Bft) 89 %
07.05.2017 02:30 11,2 C 11,2 C 11,3 C 90 % 1010,5 hPa 0,0 l/m 0,0 km/h (0 Bft) N 0 0 min 0,000 mm 0 W/m 9,6 C 11,2 C 0,0 km/h (0 Bft) 99 %
07.05.2017 02:40 11,2 C 11,2 C 11,2 C 91 % 1010,5 hPa 0,0 l/m 0,0 km/h (0 Bft) N 0 0 min 0,000 mm 0 W/m 9,8 C 11,2 C 0,0 km/h (0 Bft) 100 %
07.05.2017 02:50 11,1 C 11,1 C 11,2 C 91 % 1010,6 hPa 0,0 l/m 0,0 km/h (0 Bft) W 270 0 min 0,000 mm 0 W/m 9,7 C 11,1 C 1,6 km/h (1 Bft) 100 %
07.05.2017 03:00 11,1 C 11,1 C 11,1 C 91 % 1010,5 hPa 0,0 l/m 0,0 km/h (0 Bft) N 0 0 min 0,000 mm 0 W/m 9,7 C 11,1 C 0,0 km/h (0 Bft) 100 %
07.05.2017 03:10 11,1 C 11,1 C 11,1 C 91 % 1010,5 hPa 0,0 l/m 0,0 km/h (0 Bft) W 270 0 min 0,000 mm 0 W/m 9,7 C 11,1 C 4,8 km/h (1 Bft) 100 %
07.05.2017 03:20 11,1 C 11,1 C 11,2 C 91 % 1010,5 hPa 0,0 l/m 0,0 km/h (0 Bft) W 270 0 min 0,000 mm 0 W/m 9,7 C 11,1 C 4,8 km/h (1 Bft) 100 %
07.05.2017 03:30 11,2 C 11,1 C 11,2 C 91 % 1010,5 hPa 0,2 l/m 0,0 km/h (0 Bft) N 0 0 min 0,000 mm 0 W/m 9,8 C 11,2 C 0,0 km/h (0 Bft) 100 %
07.05.2017 03:40 11,1 C 11,1 C 11,2 C 91 % 1010,6 hPa 0,0 l/m 0,0 km/h (0 Bft) W 270 0 min 0,000 mm 0 W/m 9,7 C 11,1 C 1,6 km/h (1 Bft) 100 %
07.05.2017 03:50 11,1 C 11,1 C 11,1 C 91 % 1010,7 hPa 0,0 l/m 0,0 km/h (0 Bft) N 0 0 min 0,000 mm 0 W/m 9,7 C 11,1 C 0,0 km/h (0 Bft) 100 %
07.05.2017 04:00 11,1 C 11,1 C 11,1 C 91 % 1010,7 hPa 0,0 l/m 0,0 km/h (0 Bft) W-SW 247 0 min 0,000 mm 0 W/m 9,7 C 11,1 C 1,6 km/h (1 Bft) 100 %
07.05.2017 04:10 11,1 C 11,1 C 11,1 C 91 % 1010,7 hPa 0,0 l/m 0,0 km/h (0 Bft) W-SW 247 0 min 0,000 mm 0 W/m 9,7 C 11,1 C 1,6 km/h (1 Bft) 100 %
07.05.2017 04:20 11,1 C 11,1 C 11,1 C 91 % 1010,6 hPa 0,0 l/m 0,0 km/h (0 Bft) W-SW 247 0 min 0,000 mm 0 W/m 9,7 C 11,1 C 3,2 km/h (1 Bft) 100 %
07.05.2017 04:30 11,1 C 11,1 C 11,1 C 91 % 1010,6 hPa 0,0 l/m 0,0 km/h (0 Bft) N 0 0 min 0,000 mm 0 W/m 9,7 C 11,1 C 0,0 km/h (0 Bft) 100 %
07.05.2017 04:40 11,1 C 11,1 C 11,1 C 91 % 1010,7 hPa 0,0 l/m 0,0 km/h (0 Bft) N 0 0 min 0,000 mm 0 W/m 9,7 C 11,1 C 0,0 km/h (0 Bft) 99 %
07.05.2017 04:50 11,1 C 11,1 C 11,1 C 91 % 1010,8 hPa 0,0 l/m 0,0 km/h (0 Bft) W-SW 247 0 min 0,000 mm 0 W/m 9,7 C 11,1 C 1,6 km/h (1 Bft) 99 %
07.05.2017 05:00 11,1 C 11,1 C 11,1 C 91 % 1010,7 hPa 0,0 l/m 0,0 km/h (0 Bft) N 0 0 min 0,000 mm 0 W/m 9,7 C 11,1 C 0,0 km/h (0 Bft) 100 %
07.05.2017 05:10 11,1 C 11,1 C 11,1 C 91 % 1010,8 hPa 0,2 l/m 0,0 km/h (0 Bft) SW 225 0 min 0,000 mm 0 W/m 9,7 C 11,1 C 1,6 km/h (1 Bft) 100 %
07.05.2017 05:20 11,1 C 11,1 C 11,1 C 91 % 1010,6 hPa 0,0 l/m 0,0 km/h (0 Bft) SW 225 0 min 0,000 mm 0 W/m 9,7 C 11,1 C 1,6 km/h (1 Bft) 100 %
07.05.2017 05:30 11,1 C 11,1 C 11,1 C 91 % 1010,6 hPa 0,0 l/m 0,0 km/h (0 Bft) S-SW 202 0 min 0,000 mm 0 W/m 9,7 C 11,1 C 6,4 km/h (2 Bft) 100 %
07.05.2017 05:40 11,1 C 11,1 C 11,1 C 91 % 1010,6 hPa 0,0 l/m 1,6 km/h (1 Bft) S-SW 202 0 min 0,000 mm 0 W/m 9,7 C 11,1 C 6,4 km/h (2 Bft) 91 %
07.05.2017 05:50 11,1 C 11,1 C 11,1 C 91 % 1010,6 hPa 0,0 l/m 0,0 km/h (0 Bft) S-SW 202 0 min 0,000 mm 0 W/m 9,7 C 11,1 C 1,6 km/h (1 Bft) 100 %
07.05.2017 06:00 11,1 C 11,0 C 11,1 C 91 % 1010,6 hPa 0,0 l/m 4,8 km/h (1 Bft) SW 225 0 min 0,000 mm 0 W/m 9,7 C 11,1 C 11,3 km/h (2 Bft) 100 %
07.05.2017 06:10 11,0 C 11,0 C 11,1 C 91 % 1010,7 hPa 0,0 l/m 4,8 km/h (1 Bft) S-SW 202 0 min 0,000 mm 5 W/m 9,6 C 11,0 C 12,9 km/h (3 Bft) 100 %
07.05.2017 06:20 10,9 C 10,9 C 11,0 C 91 % 1010,6 hPa 0,0 l/m 4,8 km/h (1 Bft) S-SW 202 0 min 0,000 mm 11 W/m 9,5 C 10,9 C 11,3 km/h (2 Bft) 100 %
07.05.2017 06:30 10,9 C 10,9 C 10,9 C 91 % 1010,6 hPa 0,0 l/m 6,4 km/h (2 Bft) S-SW 202 0 min 0,000 mm 14 W/m 9,5 C 10,9 C 14,5 km/h (3 Bft) 100 %
07.05.2017 06:40 10,9 C 10,9 C 10,9 C 91 % 1010,7 hPa 0,0 l/m 4,8 km/h (1 Bft) SW 225 0 min 0,000 mm 18 W/m 9,5 C 10,9 C 11,3 km/h (2 Bft) 100 %
07.05.2017 06:50 10,9 C 10,8 C 10,9 C 91 % 1010,8 hPa 0,0 l/m 6,4 km/h (2 Bft) S-SW 202 0 min 0,000 mm 28 W/m 9,5 C 10,9 C 14,5 km/h (3 Bft) 100 %
07.05.2017 07:00 10,8 C 10,8 C 10,9 C 91 % 1010,8 hPa 0,0 l/m 6,4 km/h (2 Bft) SW 225 0 min 0,025 mm 28 W/m 9,4 C 10,8 C 16,1 km/h (3 Bft) 100 %
07.05.2017 07:10 10,8 C 10,8 C 10,9 C 91 % 1010,9 hPa 0,0 l/m 4,8 km/h (1 Bft) W-SW 247 0 min 0,000 mm 30 W/m 9,4 C 10,8 C 16,1 km/h (3 Bft) 100 %
07.05.2017 07:20 10,8 C 10,8 C 10,8 C 91 % 1011,0 hPa 0,0 l/m 8,0 km/h (2 Bft) SW 225 0 min 0,000 mm 33 W/m 9,4 C 9,7 C 17,7 km/h (3 Bft) 100 %
07.05.2017 07:30 10,8 C 10,8 C 10,8 C 91 % 1011,2 hPa 0,0 l/m 4,8 km/h (1 Bft) SW 225 0 min 0,000 mm 44 W/m 9,4 C 10,8 C 14,5 km/h (3 Bft) 100 %
07.05.2017 07:40 10,8 C 10,8 C 10,8 C 91 % 1011,2 hPa 0,0 l/m 8,0 km/h (2 Bft) W-SW 247 0 min 0,000 mm 46 W/m 9,4 C 9,7 C 17,7 km/h (3 Bft) 100 %
07.05.2017 07:50 10,8 C 10,8 C 10,8 C 91 % 1011,3 hPa 0,0 l/m 3,2 km/h (1 Bft) W-SW 247 0 min 0,000 mm 42 W/m 9,4 C 10,8 C 11,3 km/h (2 Bft) 100 %
07.05.2017 08:00 10,8 C 10,8 C 10,9 C 91 % 1011,3 hPa 0,0 l/m 4,8 km/h (1 Bft) SW 225 0 min 0,025 mm 44 W/m 9,4 C 10,8 C 16,1 km/h (3 Bft) 100 %
07.05.2017 08:10 10,9 C 10,8 C 10,9 C 91 % 1011,3 hPa 0,0 l/m 4,8 km/h (1 Bft) S-SW 202 0 min 0,000 mm 46 W/m 9,5 C 10,9 C 14,5 km/h (3 Bft) 100 %
07.05.2017 08:20 10,9 C 10,9 C 10,9 C 91 % 1011,5 hPa 0,0 l/m 4,8 km/h (1 Bft) S-SW 202 0 min 0,000 mm 67 W/m 9,5 C 10,9 C 16,1 km/h (3 Bft) 100 %
07.05.2017 08:30 11,0 C 10,9 C 11,0 C 91 % 1011,6 hPa 0,0 l/m 1,6 km/h (1 Bft) S-SW 202 0 min 0,000 mm 76 W/m 9,6 C 11,0 C 14,5 km/h (3 Bft) 100 %
07.05.2017 08:40 11,1 C 11,0 C 11,1 C 91 % 1011,6 hPa 0,0 l/m 3,2 km/h (1 Bft) SW 225 0 min 0,000 mm 76 W/m 9,7 C 11,1 C 11,3 km/h (2 Bft) 100 %
07.05.2017 08:50 11,2 C 11,1 C 11,2 C 91 % 1011,6 hPa 0,0 l/m 6,4 km/h (2 Bft) SW 225 0 min 0,000 mm 72 W/m 9,8 C 11,2 C 12,9 km/h (3 Bft) 99 %
07.05.2017 09:00 11,1 C 11,1 C 11,2 C 91 % 1011,6 hPa 0,0 l/m 6,4 km/h (2 Bft) SW 225 0 min 0,025 mm 76 W/m 9,7 C 11,1 C 17,7 km/h (3 Bft) 100 %
07.05.2017 09:10 11,2 C 11,1 C 11,2 C 91 % 1011,7 hPa 0,0 l/m 6,4 km/h (2 Bft) S-SW 202 0 min 0,000 mm 97 W/m 9,8 C 11,2 C 14,5 km/h (3 Bft) 91 %
07.05.2017 09:20 11,3 C 11,2 C 11,3 C 91 % 1011,8 hPa 0,0 l/m 4,8 km/h (1 Bft) S-SW 202 0 min 0,000 mm 105 W/m 9,9 C 11,3 C 17,7 km/h (3 Bft) 100 %
07.05.2017 09:30 11,4 C 11,3 C 11,4 C 91 % 1011,7 hPa 0,0 l/m 8,0 km/h (2 Bft) S-SW 202 10 min 0,000 mm 156 W/m 10,0 C 10,3 C 16,1 km/h (3 Bft) 100 %
07.05.2017 09:40 11,5 C 11,4 C 11,5 C 91 % 1011,9 hPa 0,0 l/m 6,4 km/h (2 Bft) SW 225 10 min 0,000 mm 153 W/m 10,1 C 11,5 C 16,1 km/h (3 Bft) 100 %
07.05.2017 09:50 11,5 C 11,4 C 11,5 C 91 % 1011,9 hPa 0,0 l/m 8,0 km/h (2 Bft) S-SW 202 0 min 0,000 mm 111 W/m 10,1 C 10,4 C 14,5 km/h (3 Bft) 100 %
07.05.2017 10:00 11,5 C 11,4 C 11,5 C 91 % 1011,9 hPa 0,0 l/m 4,8 km/h (1 Bft) SW 225 0 min 0,051 mm 84 W/m 10,1 C 11,5 C 9,7 km/h (2 Bft) 100 %
07.05.2017 10:10 11,6 C 11,5 C 11,6 C 91 % 1012,0 hPa 0,0 l/m 6,4 km/h (2 Bft) W-SW 247 0 min 0,000 mm 141 W/m 10,2 C 11,6 C 16,1 km/h (3 Bft) 99 %
07.05.2017 10:20 11,7 C 11,6 C 11,7 C 91 % 1012,1 hPa 0,0 l/m 4,8 km/h (1 Bft) SW 225 0 min 0,000 mm 127 W/m 10,3 C 11,7 C 11,3 km/h (2 Bft) 100 %
07.05.2017 10:30 11,6 C 11,6 C 11,7 C 91 % 1012,2 hPa 0,0 l/m 6,4 km/h (2 Bft) S-SW 202 0 min 0,000 mm 95 W/m 10,2 C 11,6 C 14,5 km/h (3 Bft) 100 %
07.05.2017 10:40 11,6 C 11,6 C 11,6 C 91 % 1012,1 hPa 0,0 l/m 3,2 km/h (1 Bft) SW 225 0 min 0,000 mm 70 W/m 10,2 C 11,6 C 14,5 km/h (3 Bft) 100 %
07.05.2017 10:50 11,6 C 11,6 C 11,6 C 91 % 1012,4 hPa 0,0 l/m 4,8 km/h (1 Bft) SW 225 0 min 0,000 mm 84 W/m 10,2 C 11,6 C 11,3 km/h (2 Bft) 100 %
07.05.2017 11:00 11,6 C 11,6 C 11,6 C 91 % 1012,4 hPa 0,2 l/m 3,2 km/h (1 Bft) SW 225 0 min 0,051 mm 109 W/m 10,2 C 11,6 C 9,7 km/h (2 Bft) 100 %
07.05.2017 11:10 11,6 C 11,6 C 11,6 C 91 % 1012,5 hPa 0,0 l/m 4,8 km/h (1 Bft) S-SW 202 0 min 0,000 mm 76 W/m 10,2 C 11,6 C 11,3 km/h (2 Bft) 100 %
07.05.2017 11:20 11,6 C 11,6 C 11,6 C 91 % 1012,5 hPa 0,0 l/m 4,8 km/h (1 Bft) S-SW 202 0 min 0,000 mm 98 W/m 10,2 C 11,6 C 11,3 km/h (2 Bft) 100 %
07.05.2017 11:30 11,6 C 11,6 C 11,6 C 91 % 1012,5 hPa 0,0 l/m 3,2 km/h (1 Bft) S-SW 202 0 min 0,000 mm 84 W/m 10,2 C 11,6 C 9,7 km/h (2 Bft) 100 %
07.05.2017 11:40 11,6 C 11,6 C 11,7 C 91 % 1012,5 hPa 0,0 l/m 3,2 km/h (1 Bft) SW 225 0 min 0,000 mm 74 W/m 10,2 C 11,6 C 9,7 km/h (2 Bft) 100 %
07.05.2017 11:50 11,7 C 11,6 C 11,7 C 91 % 1012,6 hPa 0,0 l/m 1,6 km/h (1 Bft) SW 225 0 min 0,000 mm 120 W/m 10,3 C 11,7 C 6,4 km/h (2 Bft) 100 %
07.05.2017 12:00 11,7 C 11,7 C 11,7 C 91 % 1012,6 hPa 0,0 l/m 3,2 km/h (1 Bft) W-SW 247 0 min 0,051 mm 93 W/m 10,3 C 11,7 C 9,7 km/h (2 Bft) 100 %
07.05.2017 12:10 11,7 C 11,6 C 11,7 C 91 % 1012,8 hPa 0,0 l/m 4,8 km/h (1 Bft) W-NW 292 0 min 0,000 mm 69 W/m 10,3 C 11,7 C 9,7 km/h (2 Bft) 100 %
07.05.2017 12:20 11,7 C 11,6 C 11,7 C 91 % 1012,7 hPa 0,0 l/m 3,2 km/h (1 Bft) W 270 0 min 0,000 mm 70 W/m 10,3 C 11,7 C 8,0 km/h (2 Bft) 100 %
07.05.2017 12:30 11,6 C 11,6 C 11,7 C 91 % 1012,9 hPa 0,0 l/m 1,6 km/h (1 Bft) W 270 0 min 0,000 mm 72 W/m 10,2 C 11,6 C 8,0 km/h (2 Bft) 100 %
07.05.2017 12:40 11,6 C 11,6 C 11,7 C 91 % 1013,0 hPa 0,0 l/m 1,6 km/h (1 Bft) W 270 0 min 0,000 mm 91 W/m 10,2 C 11,6 C 8,0 km/h (2 Bft) 100 %
07.05.2017 12:50 11,7 C 11,6 C 11,7 C 91 % 1013,0 hPa 0,0 l/m 1,6 km/h (1 Bft) SW 225 0 min 0,000 mm 95 W/m 10,3 C 11,7 C 9,7 km/h (2 Bft) 100 %
07.05.2017 13:00 11,7 C 11,7 C 11,7 C 91 % 1013,0 hPa 0,0 l/m 0,0 km/h (0 Bft) W 270 0 min 0,025 mm 72 W/m 10,3 C 11,7 C 1,6 km/h (1 Bft) 100 %
07.05.2017 13:10 11,7 C 11,7 C 11,8 C 91 % 1013,0 hPa 0,0 l/m 1,6 km/h (1 Bft) W 270 0 min 0,000 mm 53 W/m 10,3 C 11,7 C 8,0 km/h (2 Bft) 100 %
07.05.2017 13:20 11,7 C 11,7 C 11,7 C 91 % 1013,0 hPa 0,0 l/m 1,6 km/h (1 Bft) W-NW 292 0 min 0,000 mm 56 W/m 10,3 C 11,7 C 6,4 km/h (2 Bft) 100 %
07.05.2017 13:30 11,8 C 11,7 C 11,8 C 91 % 1013,0 hPa 0,0 l/m 0,1 km/h (0 Bft) W 268 0 min 0,000 mm 125 W/m 10,4 C 11,8 C 1,6 km/h (1 Bft) 100 %
07.05.2017 13:40 11,9 C 11,8 C 11,9 C 91 % 1012,9 hPa 0,0 l/m 0,3 km/h (0 Bft) W 267 0 min 0,000 mm 127 W/m 10,5 C 11,9 C 6,4 km/h (2 Bft) 100 %
07.05.2017 13:50 12,2 C 11,9 C 12,2 C 91 % 1012,9 hPa 0,0 l/m 1,2 km/h (1 Bft) W-SW 257 0 min 0,000 mm 81 W/m 10,8 C 12,2 C 8,0 km/h (2 Bft) 100 %
07.05.2017 14:00 12,2 C 12,2 C 12,2 C 91 % 1012,8 hPa 0,0 l/m 0,1 km/h (0 Bft) W 276 0 min 0,027 mm 114 W/m 10,8 C 12,2 C 3,2 km/h (1 Bft) 100 %
07.05.2017 14:10 12,3 C 12,2 C 12,3 C 91 % 1012,8 hPa 0,2 l/m 1,9 km/h (1 Bft) W-SW 257 0 min 0,000 mm 109 W/m 10,9 C 12,3 C 9,7 km/h (2 Bft) 100 %
07.05.2017 14:20 12,4 C 12,3 C 12,4 C 91 % 1013,0 hPa 0,0 l/m 0,8 km/h (0 Bft) W-SW 255 0 min 0,000 mm 123 W/m 11,0 C 12,4 C 4,8 km/h (1 Bft) 100 %
07.05.2017 14:30 12,4 C 12,4 C 12,4 C 91 % 1012,9 hPa 0,0 l/m 0,8 km/h (0 Bft) W 266 10 min 0,000 mm 171 W/m 11,0 C 12,4 C 8,0 km/h (2 Bft) 100 %
07.05.2017 14:40 12,6 C 12,4 C 12,6 C 91 % 1013,0 hPa 0,0 l/m 1,1 km/h (1 Bft) W 269 0 min 0,000 mm 142 W/m 11,2 C 12,6 C 8,0 km/h (2 Bft) 99 %
07.05.2017 14:50 12,8 C 12,6 C 12,8 C 91 % 1013,0 hPa 0,0 l/m 0,8 km/h (0 Bft) W-NW 298 10 min 0,000 mm 199 W/m 11,4 C 12,8 C 8,0 km/h (2 Bft) 100 %
07.05.2017 15:00 12,9 C 12,8 C 12,9 C 91 % 1013,0 hPa 0,0 l/m 0,0 km/h (0 Bft) W-NW 298 10 min 0,076 mm 156 W/m 11,5 C 12,9 C 1,6 km/h (1 Bft) 100 %
07.05.2017 15:10 13,1 C 12,9 C 13,2 C 91 % 1013,0 hPa 0,0 l/m 1,9 km/h (1 Bft) NW 305 0 min 0,000 mm 98 W/m 11,7 C 13,1 C 9,7 km/h (2 Bft) 100 %
07.05.2017 15:20 13,0 C 13,0 C 13,2 C 91 % 1013,0 hPa 0,0 l/m 4,0 km/h (1 Bft) W 280 0 min 0,000 mm 90 W/m 11,6 C 13,0 C 9,7 km/h (2 Bft) 100 %
07.05.2017 15:30 12,8 C 12,8 C 13,0 C 91 % 1012,9 hPa 0,0 l/m 4,4 km/h (1 Bft) W 281 0 min 0,000 mm 125 W/m 11,4 C 12,8 C 11,3 km/h (2 Bft) 100 %
07.05.2017 15:40 12,9 C 12,8 C 12,9 C 91 % 1013,0 hPa 0,0 l/m 1,6 km/h (1 Bft) SW 236 0 min 0,000 mm 123 W/m 11,5 C 12,9 C 8,0 km/h (2 Bft) 100 %
07.05.2017 15:50 12,8 C 12,8 C 12,9 C 91 % 1012,9 hPa 0,0 l/m 4,8 km/h (1 Bft) W-SW 251 0 min 0,000 mm 74 W/m 11,4 C 12,8 C 16,1 km/h (3 Bft) 100 %
07.05.2017 16:00 12,7 C 12,7 C 12,8 C 91 % 1013,0 hPa 0,2 l/m 3,9 km/h (1 Bft) W 265 0 min 0,051 mm 98 W/m 11,3 C 12,7 C 11,3 km/h (2 Bft) 100 %
07.05.2017 16:10 12,7 C 12,7 C 12,7 C 91 % 1012,9 hPa 0,0 l/m 2,8 km/h (1 Bft) W 268 0 min 0,000 mm 118 W/m 11,3 C 12,7 C 9,7 km/h (2 Bft) 100 %
07.05.2017 16:20 12,8 C 12,7 C 12,8 C 91 % 1012,8 hPa 0,0 l/m 2,3 km/h (1 Bft) W 266 0 min 0,000 mm 81 W/m 11,4 C 12,8 C 8,0 km/h (2 Bft) 100 %
07.05.2017 16:30 12,8 C 12,8 C 12,8 C 91 % 1012,8 hPa 0,0 l/m 4,6 km/h (1 Bft) W-NW 288 0 min 0,000 mm 56 W/m 11,4 C 12,8 C 14,5 km/h (3 Bft) 100 %
07.05.2017 16:40 12,8 C 12,8 C 12,8 C 91 % 1012,9 hPa 0,0 l/m 1,6 km/h (1 Bft) SW 229 0 min 0,000 mm 37 W/m 11,4 C 12,8 C 9,7 km/h (2 Bft) 100 %
07.05.2017 16:50 12,7 C 12,7 C 12,8 C 94 % 1012,9 hPa 0,0 l/m 5,2 km/h (1 Bft) W 264 0 min 0,000 mm 37 W/m 11,8 C 12,7 C 14,5 km/h (3 Bft) 100 %
07.05.2017 17:00 12,6 C 12,6 C 12,7 C 91 % 1012,9 hPa 0,2 l/m 4,5 km/h (1 Bft) SW 223 0 min 0,051 mm 67 W/m 11,2 C 12,6 C 14,5 km/h (3 Bft) 99 %
07.05.2017 17:10 12,6 C 12,5 C 12,6 C 91 % 1012,9 hPa 0,0 l/m 4,4 km/h (1 Bft) W-SW 242 0 min 0,000 mm 49 W/m 11,2 C 12,6 C 9,7 km/h (2 Bft) 100 %
07.05.2017 17:20 12,4 C 12,4 C 12,6 C 91 % 1012,9 hPa 0,0 l/m 6,1 km/h (2 Bft) S-SW 211 0 min 0,000 mm 47 W/m 11,0 C 12,4 C 16,1 km/h (3 Bft) 100 %
07.05.2017 17:30 12,4 C 12,4 C 12,4 C 91 % 1012,9 hPa 0,2 l/m 4,9 km/h (1 Bft) W-SW 254 0 min 0,000 mm 58 W/m 11,0 C 12,4 C 11,3 km/h (2 Bft) 100 %
07.05.2017 17:40 12,4 C 12,4 C 12,4 C 91 % 1012,9 hPa 0,0 l/m 3,1 km/h (1 Bft) SW 236 0 min 0,000 mm 44 W/m 11,0 C 12,4 C 11,3 km/h (2 Bft) 100 %
07.05.2017 17:50 12,4 C 12,4 C 12,4 C 91 % 1012,9 hPa 0,0 l/m 2,7 km/h (1 Bft) W-SW 246 0 min 0,000 mm 49 W/m 11,0 C 12,4 C 11,3 km/h (2 Bft) 100 %
07.05.2017 18:00 12,4 C 12,4 C 12,4 C 91 % 1012,9 hPa 0,0 l/m 0,2 km/h (0 Bft) W-SW 242 0 min 0,025 mm 46 W/m 11,0 C 12,4 C 4,8 km/h (1 Bft) 100 %
07.05.2017 18:10 12,4 C 12,4 C 12,5 C 91 % 1012,8 hPa 0,0 l/m 2,7 km/h (1 Bft) W-SW 240 0 min 0,000 mm 42 W/m 11,0 C 12,4 C 9,7 km/h (2 Bft) 100 %
07.05.2017 18:20 12,4 C 12,4 C 12,4 C 91 % 1012,9 hPa 0,2 l/m 4,3 km/h (1 Bft) W 265 0 min 0,000 mm 47 W/m 11,0 C 12,4 C 14,5 km/h (3 Bft) 100 %
07.05.2017 18:30 12,4 C 12,4 C 12,4 C 91 % 1012,8 hPa 0,2 l/m 2,0 km/h (1 Bft) W-SW 249 0 min 0,000 mm 40 W/m 11,0 C 12,4 C 14,5 km/h (3 Bft) 100 %
07.05.2017 18:40 12,4 C 12,3 C 12,4 C 91 % 1012,8 hPa 0,0 l/m 1,4 km/h (1 Bft) W-SW 254 0 min 0,000 mm 30 W/m 11,0 C 12,4 C 9,7 km/h (2 Bft) 99 %
07.05.2017 18:50 12,3 C 12,3 C 12,4 C 91 % 1012,8 hPa 0,0 l/m 0,6 km/h (0 Bft) W 264 0 min 0,000 mm 25 W/m 10,9 C 12,3 C 6,4 km/h (2 Bft) 100 %
07.05.2017 19:00 12,3 C 12,3 C 12,3 C 91 % 1012,8 hPa 0,2 l/m 2,9 km/h (1 Bft) S-SW 213 0 min 0,025 mm 19 W/m 10,9 C 12,3 C 9,7 km/h (2 Bft) 100 %
07.05.2017 19:10 12,2 C 12,2 C 12,3 C 91 % 1012,9 hPa 0,2 l/m 1,6 km/h (1 Bft) SW 223 0 min 0,000 mm 21 W/m 10,8 C 12,2 C 9,7 km/h (2 Bft) 100 %
07.05.2017 19:20 12,2 C 12,2 C 12,2 C 91 % 1012,9 hPa 0,2 l/m 0,9 km/h (0 Bft) W-SW 250 0 min 0,000 mm 16 W/m 10,8 C 12,2 C 9,7 km/h (2 Bft) 100 %
07.05.2017 19:30 12,2 C 12,2 C 12,2 C 91 % 1012,9 hPa 0,4 l/m 1,8 km/h (1 Bft) SW 228 0 min 0,000 mm 19 W/m 10,8 C 12,2 C 6,4 km/h (2 Bft) 100 %
07.05.2017 19:40 12,2 C 12,2 C 12,2 C 91 % 1013,0 hPa 0,4 l/m 0,0 km/h (0 Bft) SW 219 0 min 0,000 mm 12 W/m 10,8 C 12,2 C 0,0 km/h (0 Bft) 100 %
07.05.2017 19:50 12,2 C 12,1 C 12,2 C 91 % 1013,0 hPa 0,2 l/m 1,6 km/h (1 Bft) S-SW 213 0 min 0,000 mm 9 W/m 10,8 C 12,2 C 11,3 km/h (2 Bft) 100 %
07.05.2017 20:00 12,1 C 12,1 C 12,2 C 91 % 1012,9 hPa 0,2 l/m 1,6 km/h (1 Bft) SW 217 0 min 0,000 mm 9 W/m 10,7 C 12,1 C 6,4 km/h (2 Bft) 98 %
07.05.2017 20:10 12,1 C 12,1 C 12,1 C 91 % 1012,9 hPa 0,4 l/m 0,4 km/h (0 Bft) S-SW 209 0 min 0,000 mm 7 W/m 10,7 C 12,1 C 8,0 km/h (2 Bft) 93 %
07.05.2017 20:20 12,0 C 12,0 C 12,1 C 91 % 1012,9 hPa 0,4 l/m 1,5 km/h (1 Bft) S-SW 199 0 min 0,000 mm 5 W/m 10,6 C 12,0 C 8,0 km/h (2 Bft) 100 %
07.05.2017 20:30 12,0 C 12,0 C 12,0 C 92 % 1013,0 hPa 0,2 l/m 1,5 km/h (1 Bft) SW 216 0 min 0,000 mm 0 W/m 10,7 C 12,0 C 8,0 km/h (2 Bft) 100 %
07.05.2017 20:40 11,9 C 11,9 C 12,0 C 92 % 1013,1 hPa 0,2 l/m 0,0 km/h (0 Bft) SW 214 0 min 0,000 mm 0 W/m 10,6 C 11,9 C 0,0 km/h (0 Bft) 100 %
07.05.2017 20:50 11,9 C 11,9 C 11,9 C 91 % 1013,0 hPa 0,0 l/m 0,0 km/h (0 Bft) SW 214 0 min 0,000 mm 0 W/m 10,5 C 11,9 C 0,0 km/h (0 Bft) 100 %
07.05.2017 21:00 11,8 C 11,8 C 11,9 C 91 % 1013,1 hPa 0,2 l/m 0,0 km/h (0 Bft) SW 214 0 min 0,000 mm 0 W/m 10,4 C 11,8 C 0,0 km/h (0 Bft) 100 %
07.05.2017 21:10 11,8 C 11,8 C 11,9 C 91 % 1013,1 hPa 0,2 l/m 0,0 km/h (0 Bft) N 0 0 min 0,000 mm 0 W/m 10,4 C 11,8 C 0,0 km/h (0 Bft) 97 %
07.05.2017 21:20 11,8 C 11,8 C 11,8 C 91 % 1013,3 hPa 0,0 l/m 0,0 km/h (0 Bft) N 0 0 min 0,000 mm 0 W/m 10,4 C 11,8 C 0,0 km/h (0 Bft) 98 %
07.05.2017 21:30 11,8 C 11,8 C 11,8 C 91 % 1013,4 hPa 0,0 l/m 0,0 km/h (0 Bft) N 0 0 min 0,000 mm 0 W/m 10,4 C 11,8 C 0,0 km/h (0 Bft) 97 %
07.05.2017 21:40 11,8 C 11,8 C 11,8 C 91 % 1013,4 hPa 0,0 l/m 0,0 km/h (0 Bft) N 0 0 min 0,000 mm 0 W/m 10,4 C 11,8 C 0,0 km/h (0 Bft) 96 %
07.05.2017 21:50 11,8 C 11,8 C 11,8 C 91 % 1013,4 hPa 0,0 l/m 0,0 km/h (0 Bft) N 0 0 min 0,000 mm 0 W/m 10,4 C 11,8 C 0,0 km/h (0 Bft) 97 %
07.05.2017 22:00 11,8 C 11,8 C 11,8 C 91 % 1013,4 hPa 0,2 l/m 0,0 km/h (0 Bft) N 0 0 min 0,000 mm 0 W/m 10,4 C 11,8 C 0,0 km/h (0 Bft) 97 %
07.05.2017 22:10 11,7 C 11,7 C 11,8 C 91 % 1013,4 hPa 0,2 l/m 0,0 km/h (0 Bft) N 0 0 min 0,000 mm 0 W/m 10,3 C 11,7 C 0,0 km/h (0 Bft) 98 %
07.05.2017 22:20 11,7 C 11,7 C 11,7 C 91 % 1013,4 hPa 0,0 l/m 0,0 km/h (0 Bft) N 0 0 min 0,000 mm 0 W/m 10,3 C 11,7 C 0,0 km/h (0 Bft) 97 %
07.05.2017 22:30 11,7 C 11,7 C 11,7 C 91 % 1013,4 hPa 0,0 l/m 0,0 km/h (0 Bft) N 0 0 min 0,000 mm 0 W/m 10,3 C 11,7 C 0,0 km/h (0 Bft) 97 %
07.05.2017 22:40 11,7 C 11,7 C 11,7 C 91 % 1013,4 hPa 0,2 l/m 0,0 km/h (0 Bft) N 0 0 min 0,000 mm 0 W/m 10,3 C 11,7 C 0,0 km/h (0 Bft) 98 %
07.05.2017 22:50 11,7 C 11,6 C 11,7 C 91 % 1013,4 hPa 0,2 l/m 0,0 km/h (0 Bft) N 0 0 min 0,000 mm 0 W/m 10,3 C 11,7 C 0,0 km/h (0 Bft) 97 %
07.05.2017 23:00 11,6 C 11,6 C 11,7 C 91 % 1013,4 hPa 0,2 l/m 0,0 km/h (0 Bft) N 0 0 min 0,000 mm 0 W/m 10,2 C 11,6 C 0,0 km/h (0 Bft) 98 %
07.05.2017 23:10 11,7 C 11,6 C 11,7 C 91 % 1013,4 hPa 0,4 l/m 0,0 km/h (0 Bft) SW 225 0 min 0,000 mm 0 W/m 10,3 C 11,7 C 1,6 km/h (1 Bft) 97 %
07.05.2017 23:20 11,7 C 11,6 C 11,7 C 91 % 1013,4 hPa 0,2 l/m 0,0 km/h (0 Bft) N 0 0 min 0,000 mm 0 W/m 10,3 C 11,7 C 0,0 km/h (0 Bft) 98 %
07.05.2017 23:30 11,6 C 11,6 C 11,7 C 91 % 1013,4 hPa 0,0 l/m 0,0 km/h (0 Bft) N 0 0 min 0,000 mm 0 W/m 10,2 C 11,6 C 0,0 km/h (0 Bft) 97 %
07.05.2017 23:40 11,6 C 11,6 C 11,6 C 91 % 1013,5 hPa 0,0 l/m 0,0 km/h (0 Bft) W-SW 247 0 min 0,000 mm 0 W/m 10,2 C 11,6 C 3,2 km/h (1 Bft) 97 %
07.05.2017 23:50 11,6 C 11,6 C 11,6 C 92 % 1013,5 hPa 0,2 l/m 0,0 km/h (0 Bft) W-SW 247 0 min 0,000 mm 0 W/m 10,3 C 11,6 C 3,2 km/h (1 Bft) 97 %
_ Min-Zeit 06:50 06:50 07:20 00:00 00:00 - 01:20 - - - - - 07:00 07:20 01:50 02:20
Minimum _ 10,8 C 10,8 C 10,8 C 89 % 1010,1 hPa - 0,0 km/h (0 Bft) - - - - - 9,4 C 9,7 C 0,0 km/h (0 Bft) 89 %
_ Max-Zeit 15:10 15:20 15:10 16:50 23:40 19:30 07:20 - - 09:30 15:00 14:50 16:50 15:10 07:20 00:00
Maximum _ 13,2 C 13,0 C 13,2 C 94 % 1013,5 hPa 0,4 l/m 8,0 km/h
SW (2 Bft)
- - 10 min 0,076 mm 199 W/m 11,8 C 13,1 C 17,7 km/h
SW (3 Bft)
100 %
Durchschnitt _ 11,7 C 11,7 C 11,7 C 91 % 1012,0 hPa #7,2 l/m 2,3 km/h (1 Bft) SW - #50 min. #0,533 mm 72 W/m 10,3 C 11,7 C 7,6 km/h (2 Bft) 99 %
PRIVATE WETTERSTATION BILLIGHEIM-ALLFELD - www.neckar-odenwald-wetter.de - Holger Sonntag